{"data":{"norad_id":66640,"intl_designator":"2025-271Z","name":"STARLINK-35921","alt_names":[],"object_type":"PAYLOAD","status":"ACTIVE","operator":null,"country":"US","launch_date":"2025-11-23","launch_site_code":"AFWTR","launch_vehicle":null,"mission":null,"orbit_class":"UNKNOWN","rcs_meters":null,"size_class":null,"mass_kg":null,"dimensions":null,"purposes":["comms"],"wikipedia_slug":null,"has_3d_model":false,"image_url":null,"decayed_at":null,"tle_current":{"epoch":"2026-05-24T23:52:34.608000Z","epoch_age_seconds":69328,"freshness":"FRESH","line1":"1 66640U 25271Z   26144.99484500  .00014336  00000+0  49511-3 0  9994","line2":"2 66640  53.1600 145.1971 0001279  62.9380 297.1751 15.30207774 29250","mean_motion":15.30207774,"eccentricity":0.0001279,"inclination_deg":53.16,"raan_deg":145.1971,"arg_perigee_deg":62.938,"mean_anomaly_deg":297.1751,"bstar":0.00049511,"rev_number":2925,"period_min":94.104867617801,"perigee_km":474.31531699396,"apogee_km":476.06839851577,"semimajor_km":6853.3288577549,"source":"CELESTRAK","updated_at":"2026-05-25T13:38:21.299010Z"}}}